Other Public Products
Issued by NWS Charleston, SC

Current Version | Previous Version | Text Only | Print | Product List | Glossary Off
Versions: 1 2 3 4 5 6 7 8 9 10 11 12 13 14 15 16 17 18 19 20 21 22 23 24 25 26 27 28 29 30 31 32 33 34 35 36 37 38 39 40 41 42 43 44 45 46 47 48 49 50

737
FPUS82 KCHS 221412
OPUCHS

TEST...KCHS/KSAV Gateway Observations...TEST
National Weather Service Charleston SC
900 AM EST MON JAN 22 2018

NOTE: "fair" indicates few or no clouds below 12,000 feet with no
significant weather and/or obstructions to visibility.

SCZ050-WAZ558-NCZ071-TXZ119-213-PAZ071-DCZ001-FLZ074-172-MI076-
NYZ176-178-MAZ016-IL014-TNZ027-NJZ106-GAZ044-MD014-221500-

...Gateway Observations for Charleston International...

CITY           SKY/WX    TMP DP  RH WIND       PRES   REMARKS
Chas Airport   PTSUNNY   52  47  83 E3        30.20R
Seattle        LGT RAIN  41  39  93 SW15      30.13R FOG
Charlotte      CLOUDY    48  43  82 CALM      30.18S
Dallas DFW     CLEAR     45  26  47 W15       29.98R
Dallas Love    CLEAR     45  26  47 W8        30.00R
Philladelphia  CLOUDY    45  37  73 SE5       30.17R
Wash National  PTSUNNY   53  43  68 S7        30.15R
Baltimore      CLOUDY    46  39  76 CALM      30.14R
Miami          FAIR      76  68  76 E13       30.13R
Detroit        RAIN      41  41 100 E3        29.85F VSB 1/8
Newark         CLOUDY    43  38  82 NE7       30.18R
Laguardia      CLOUDY    39  35  86 E9        30.19R WCI  33
J F K          CLOUDY    43  39  86 CALM      30.20R
Boston Logan   NOT AVBL
Ft. Lauderdale FAIR      74  68  81 SE17      30.12R
Chicago O`Hare LGT RAIN  49  47  93 SE17      29.56F
Chicago Midway CLOUDY    50  50 100 S13       29.58F
Houston Bush   PTCLDY    58  36  43 NW9       30.01R
Houston Hobby  FAIR      61  38  42 NW12      30.00R
Nashville      CLOUDY    59  40  49 S18G26    29.90S
Atlanta        CLOUDY    50  43  77 SE7       30.12R

$$

GAZ044-118-TXZ119-213-NCZ071-DCZ001-MDZ014-506-PAZ021-071-NJZ106-
NYZ176-178-MAZ106-OHZ011-021-055-MIZ076-KYZ091-ILZ014-INZ047-
MNZ060-ONZ431-221500-

...Gateway Observations for Savannah International...

CITY           SKY/WX    TMP DP  RH WIND       PRES   REMARKS
Savannah Arpt  PTSUNNY   53  47  79 E5        30.19R
Atlanta        CLOUDY    50  43  77 SE7       30.12R
Charlotte      CLOUDY    48  43  82 CALM      30.18S
Dallas DFW     CLEAR     45  26  47 W15       29.98R
Houston Bush   PTCLDY    58  36  43 NW9       30.01R
Wash National  PTSUNNY   53  43  68 S7        30.15R
Wash Dulles    PTSUNNY   52  44  74 SE3       30.13S
Baltimore      CLOUDY    46  39  76 CALM      30.14R
Philadelphia   CLOUDY    45  37  73 SE5       30.17R
Newark         CLOUDY    43  38  82 NE7       30.18R
Laguardia      CLOUDY    39  35  86 E9        30.19R WCI  33
J F K          CLOUDY    43  39  86 CALM      30.20R
Boston         NOT AVBL
Pittsburg      CLOUDY    47  46  97 S7        30.01S
Akron          PTSUNNY   48  43  82 S10       29.95S
Cleveland      CLOUDY    50  46  86 S9        29.93F
Cincinnati     CLOUDY    55  45  68 S15G25    29.87R
Columbus       FAIR      51  45  81 S9        29.91S
Detroit        RAIN      41  41 100 E3        29.85F VSB 1/8
Chicago O`Hare LGT RAIN  49  47  93 SE17      29.56F
Minneapolis    CLOUDY    32  29  88 N17G24    29.78F WCI  21
Indianapolis   LGT RAIN  49  46  90 S10       29.83R
Toronto Canada LGT RAIN  36  36 100 E12       30.03S FOG     WCI  27

$$




USA.gov is the U.S. government's official web portal to all federal, state and local government web resources and services.